Weather in Mostovaya

Russia / Perm Krai     57°50′12″N   56°40′38″E
temp.,
°C
wind,
m/s
gust,
m/s
humid.,
%
clouds,
%
prec.,
mm/h
press.,
hPa
HPBL,
m
27 february, sat
sat2723:00−20se269593 0.0 1020137
02:00−21ese389170 0.0 1017152
05:00−20ese499345 0.0 1016247
08:00−20ese41189100 0.0 1013289
11:00−18ese4986100 0.0 1011333
14:00−14ese5987100 0.0 1009506
17:00−12e5992100 0.5 1009719
20:00−15e51092100 0.4 1009581
28 february, sun
sun2823:00−18e51094100 0.6 1010491
02:00−18e41093100 0.2 1009487
05:00−17e41094100 0.3 1009486
08:00−17ene41094100 0.2 1009498
11:00−16ene51091100 0.4 1009530
14:00−14ene4889100 0.2 1009603
17:00−14ene4791100 0.4 1010599
20:00−16ene4994100 0.3 1011473
1 march, mon
mon123:00−18ene389495 0.3 1014387
02:00−19ne269686 0.1 1015242
05:00−19nne269786 0.1 1016203
08:00−21nne259894 0.0 101896
11:00−18ne249075 0.1 1019298
14:00−13ne128261 0.0 1018497
17:00−12n128481 0.0 1018586
20:00−17w1197100 0.0 101820
2 march, tue
tue223:00−19ssw129985 0.0 101820
02:00−20s229943 0.0 101622
05:00−21s239952 0.0 101468
08:00−20s399690 0.0 1012267
11:00−16s5109195 0.0 1010411
14:00−14s61191100 0.1 1008490
17:00−12s51193100 0.8 1006533
20:00−13s41094100 0.8 1005601
3 march, wed
wed323:00−14s3995100 1.4 1005513
02:00−13s3895100 0.5 1004427
05:00−14sse3896100 0.8 1003291
08:00−15sse2696100 0.1 1003259
11:00−13sse2493100 0.4 1002288
14:00−10sse1288100 0.1 1002376
17:00−9ese1192100 0.4 1001230
20:00−11nnw1197100 0.3 100121